{"data":{"norad_id":48060,"intl_designator":"2021-025U","name":"ONEWEB-0160","alt_names":[],"object_type":"PAYLOAD","status":"ACTIVE","operator":null,"country":"UK","launch_date":"2021-03-25","launch_site_code":"VOSTO","launch_vehicle":null,"mission":null,"orbit_class":"UNKNOWN","rcs_meters":null,"size_class":null,"mass_kg":null,"dimensions":null,"purposes":["comms"],"wikipedia_slug":null,"has_3d_model":false,"image_url":null,"decayed_at":null,"tle_current":{"epoch":"2026-09-20T01:20:17.048832Z","epoch_age_seconds":56462,"freshness":"FRESH","line1":"1 48060U 21025U   26263.05575288 -.00000274  00000+0 -78627-3 0  9994","line2":"2 48060  87.8914 301.3483 0002558  86.8364 273.3058 13.13469414266013","mean_motion":13.13469414,"eccentricity":0.0002558,"inclination_deg":87.8914,"raan_deg":301.3483,"arg_perigee_deg":86.8364,"mean_anomaly_deg":273.3058,"bstar":-0.00078627,"rev_number":26601,"period_min":109.63331042591,"perigee_km":1207.8266707671,"apogee_km":1211.7086427895,"semimajor_km":7587.9046567783,"source":"CELESTRAK","updated_at":"2026-09-20T09:00:44.587719Z"}}}